STARLINK-36475, 67350

Orbit data source: Space-Track

STARLINK-36475, 67350 is a payload satellite owned by SpaceX/Seattle (US) in LEO that was launched on Fri, 09 Jan 2026 UTC via an FALCON 9 launch vehicle from the Air Force Eastern Test Range (AFETR). Payload-class satellites include a variety of spacecraft equipped with specific instruments for various scientific and technological missions. These include communications satellites like Starlink; space stations such as the ISS; scientific satellites like the Hubble; Earth observation satellites from companies like Planet Labs, Umbra, and HawkEye 360; GPS; miniature CubeSats for education and research; and military/defense satellites.

Loading next visibility...
Identifier
67350, 2026-003S
Orbit
LEO
Country
Flag of USUS
Related business
Manufacturer
SpaceX/Seattle
Mission
Operational Commercial Communications
Bus & Motor
STARLINK V2MO, Unknown motor
Mass
575 kg wet, ~530 kg dry
Launch date (UTC)
2026-01-09 (5 months ago)
Launch vehicle
FALCON 9
Launch site
Air Force Eastern Test Range (AFETR)
Object type
Payload
Rocket body
Debris
Shape & HBR
Box + 2 Pan, 17.7 m
Radar Cross Section
36.964 m², Large (>1 m²)

Expand to show TLE details & history
Last TLE update: 23 hours ago

TLE from 23 hours ago
0 STARLINK-36475
1 67350U 26003S   26170.93538381  .00012343  00000-0  45708-3 0  9998
2 67350  43.0034   9.4126 0001273 263.4683  96.6023 15.27595606 24462
Epoch: 2026-06-19T22:26Z
TLE epoch observation values (Epoch: 2026-06-19T22:26:57.161Z)
Latitude
-0.00006°
Longitude
124.51714°
Altitude
482.879 km
Speed
7.626 km/s
True Right ascension
00h 37m 39s
True Declination
0° 00' 00"
Sunlit
Object was in daylight at epoch
Visualization orbit readout
Latitude
Unknown
Longitude
Unknown
Altitude
Unknown
Speed
Unknown
Apparent Right ascension
Unknown
Apparent Declination
Unknown
Sunlit
N/A
Visualization observer readout
Local Sidereal Time
08:41:42
Azimuth
Unknown
Elevation
Unknown
Doppler factor
Unknown
Orbital elements
Apogee altitude
485.821 km
Perigee altitude
484.073 km
Semi-major axis
6,863.084 km
Eccentricity
0.00013
Inclination
43.0034°
RAAN
9.4126°
Arg. of periapsis
263.4683°
True anomaly
96.61679°
Mean anomaly
96.6023°
Eccentric anomaly
96.60955°
Mean motion
3.81737 °/min
Orbital period
94.31 mins
BSTAR
0.00045708
Loading maneuver chart data...
Computing Atmospheric mass density...
Loading historical data...
Loading historical data...
Loading historical data...
Loading historical data...
Loading historical data...
Loading historical data...
Loading historical data...

Documentation

Showing up to 5 results
|